Regional Weather Roundup
Issued by NWS Newport/Morehead, NC

Current Version | Previous Version | Graphics & Text | Print | Product List | Glossary On
Versions: 1 2 3 4 5 6 7 8 9 10 11 12 13 14 15 16 17 18 19 20 21 22 23 24 25 26 27 28 29 30 31 32 33 34 35 36 37 38 39 40 41 42 43 44 45 46 47 48 49 50
000 ASUS42 KMHX 011912 RWRMHX WEATHER ROUNDUP FOR EASTERN NORTH CAROLINA NATIONAL WEATHER SERVICE NEWPORT/MOREHEAD CITY NC 200 PM EST SUN MAR 01 2015 NOTE: "FAIR" INDICATES FEW OR NO CLOUDS BELOW 12,000 FEET WITH NO SIGNIFICANT WEATHER AND/OR OBSTRUCTIONS TO VISIBILITY NCZ015>017-031-032-045>047-102-103-012000- NORTH COAST CITY SKY/WX TMP DP RH WIND PRES REMARKS EDENTON RAIN 41 39 94 CALM 30.43F ELIZABETH CITY CLOUDY 43 40 89 CALM 30.45S KITTY HAWK CLOUDY 48 45 89 SE3 30.42F MANTEO CLOUDY 52 46 82 S5 30.43F $$ NCZ045>047-081-094-103-104-012000- CENTRAL COAST CITY SKY/WX TMP DP RH WIND PRES REMARKS FRISCO CLOUDY 52 46 80 SE8 30.43F SWANQUARTER N/A 54 N/A N/A W1 30.39F $$ NCZ095-097-098-100-101-012000- SOUTHERN COAST CITY SKY/WX TMP DP RH WIND PRES REMARKS BEAUFORT CLOUDY 63 55 75 S10 30.40F CEDAR ISLAND N/A 43 N/A N/A N3G9 30.44F JACKSONVILLE CLOUDY 52 42 69 N3 30.40F PINEY ISLAND N/A N/A N/A N/A MISG 30.41F WILMINGTON LGT RAIN 54 47 77 N5 30.41F $$ NCZ011>013-027>030-043-044-078>080-089-090>093-098-012000- COASTAL PLAIN CITY SKY/WX TMP DP RH WIND PRES REMARKS AHOSKIE LGT RAIN 33 32 96 N3 30.45F CLINTON HVY RAIN 37 37 99 NW5 30.46S ELIZABETHTOWN RAIN 38 37 97 NW3 30.45S GOLDSBORO CLOUDY 36 36 99 CALM 30.41F GREENVILLE RAIN 37 37 100 N6 30.42F HAVELOCK CLOUDY 52 42 69 NE3 30.42F KENANSVILLE CLOUDY 39 38 95 CALM 30.43F KINSTON LGT RAIN 39 37 93 NE3 30.43F NEW BERN LGT RAIN 48 44 86 CALM 30.42F RICHLANDS CLOUDY 46 39 76 N5 30.42F ROCKY MOUNT LGT RAIN 34 33 96 N8 30.43F FOG WASHINGTON DRIZZLE 41 40 95 N3 30.43F WHITEVILLE DRIZZLE 40 38 91 NW5 30.44F $$ AMZ130-135-150-152-154-156-158-170-250-252-270-ANZ085-086-088-633-658-670-012000- MARINE OBSERVATIONS STATION/POSITION TIME TEMP WIND PRES WAVE SWELL AIR SEA DIR/SP/G HT/PER HT/PER (UTC) (F) (DEG/KT/KT) (MB) (FT/S) (FT/S) CHESAPEAKE LIGHT 1800 34 20/ 10/ 11 1032.6 64 E VA BEACH 1850 58 62 170/ 23/ 27 1029.8 5/ 5 2/10 DUCK 1800 34 34 350/ 5/ 6 1031.3 2 E DUCK 1811 34 N/A 3/ 9 10 NE DUCK 1822 36 N/A 4/ 6 OREGON INLET 1800 110/ 6/ 8 1031.8 HATTERAS CG 1800 53 39 130/ 8/ 11 1031.6 CAPE LOOKOUT 1900 57 150/ 9/ 10 1029.0 BEAUFORT LAB 1800 60 41 140/ 11/ 12 1029.5 27 SE WRIGHTSVLE NOT AVBL 5 SE WRIGHTSVLE NOT AVBL 225 S CAPE HAT 1850 68 72 120/ 17/ 19 1030.5 9/ 9 5/ 9 41 SE CHARLESTON 1850 68 350/ 14/ 16 1028.6 7/ 7 5/ 7 $$

USA.gov is the U.S. government's official web portal to all federal, state and local government web resources and services.